Regional Weather Roundup
Issued by NWS

Home | Current Version | Previous Version | Text Only | Print | Product List | Glossary Off
Versions: 1 2 3 4 5 6 7 8 9 10 11 12 13 14 15 16 17 18 19 20 21 22 23 24 25 26 27 28 29 30 31 32 33 34 35 36 37 38 39 40 41 42 43 44 45 46 47 48 49 50

000
ASUS43 KLMK 192310
RWRKY
KENTUCKY REGIONAL WEATHER ROUNDUP
NATIONAL WEATHER SERVICE LOUISVILLE KY
600 PM EST SUN FEB 19 2017

NOTE "FAIR" INDICATES FEW OR NO CLOUDS BELOW 12,000 FEET
WITH NO SIGNIFICANT WEATHER AND/OR OBSTRUCTIONS TO VISIBILITY.

KYZ001>023-026-027-061>063-070>075-200000-
WESTERN AND SOUTH CENTRAL KENTUCKY

CITY           SKY/WX    TMP DP  RH WIND       PRES   REMARKS
PADUCAH        CLEAR     62  53  72 NE5       30.08R
HENDERSON      CLEAR     57  48  72 SE5       30.10S
OWENSBORO      CLEAR     55  50  83 E6        30.12F
HOPKINSVILLE   CLEAR     66  57  72 NE7       30.09S
BOWLING GREEN  CLEAR     64  51  62 CALM      30.12S
GLASGOW        CLEAR     63  50  63 W3        30.13R
$$

KYZ024-025-028>034-038-045-046-053-200000-
NORTH CENTRAL KENTUCKY

CITY           SKY/WX    TMP DP  RH WIND       PRES   REMARKS
LOUISVILLE/SDF MOCLDY    56  47  71 SW5       30.13R
LOUISVILLE/LOU PTCLDY    57  48  72 W5        30.14R
FORT KNOX      PTCLDY    54  48  82 W3        30.12S
$$

KYZ035>037-039>044-047>052-055>060-089>105-200000-
NORTHEAST KENTUCKY

CITY           SKY/WX    TMP DP  RH WIND       PRES   REMARKS
LEXINGTON      CLEAR     56  47  71 N6        30.14R
COVINGTON      PTCLDY    56  47  71 S8        30.12R
FRANKFORT      PTCLDY    57  47  69 N3        30.13R
$$

KYZ054-064>069-076>088-106>120-200000-
SOUTHEAST KENTUCKY

CITY           SKY/WX    TMP DP  RH WIND       PRES   REMARKS
JACKSON        CLEAR     59  44  57 VRB3      30.13R
LONDON         CLEAR     63  44  50 CALM      30.12R
SOMERSET       CLEAR     61  45  55 W3        30.13S
MIDDLESBORO    CLEAR     62  46  57 CALM      30.12S
MONTICELLO     CLEAR     62  49  62 CALM      30.14R
$$




USA.gov is the U.S. government's official web portal to all federal, state and local government web resources and services.